Location: Unspecified
(0.0000°N, 0.0000°E)
Time: 16:18:40
(UTC+00:00)

Tiros 1 despin weight - Pass Details

Date: 23 November 2019
Orbit: 594 x 642 km, 48.2° (Epoch: 12 December)

Event Time Altitude Azimuth Distance (km) Brightness Sun altitude
Rises 20:32:32 0° 313° (NW) 2,879 - -38.4°
Reaches altitude 10° 20:34:52 10° 309° (NW) 1,984 - -38.9°
Maximum altitude 20:39:20 55° 231° (SW) 754 - -39.9°
Drops below altitude 10° 20:43:53 10° 153° (SSE) 2,017 - -40.9°
Sets 20:46:16 0° 149° (SSE) 2,932 - -41.5°
